Time,TemperatureF,DewpointF,PressureIn,WindDirection,WindDirectionDegrees,WindSpeedMPH,WindSpeedGustMPH,Humidity,HourlyPrecipIn,Conditions,Clouds,dailyrainin,SoftwareType,DateUTC
2013-11-20 00:00:00,26.6,21.0,30.35,NNW,345,2.0,3.0,79,0.00,,,0.00,WeatherCatV1.15B25,2013-11-20 05:00:00,
2013-11-20 00:01:00,26.6,21.0,30.35,NE,50,3.0,3.0,79,0.00,,,0.00,WeatherCatV1.15B25,2013-11-20 05:01:00,
2013-11-20 00:06:00,26.5,20.9,30.35,NNW,327,1.0,5.0,79,0.00,,,0.00,WeatherCatV1.15B25,2013-11-20 05:06:00,
2013-11-20 00:11:00,26.6,21.0,30.35,NNW,347,2.0,9.0,79,0.00,,,0.00,WeatherCatV1.15B25,2013-11-20 05:11:00,
2013-11-20 00:16:00,26.7,21.1,30.36,ENE,69,2.0,6.0,79,0.00,,,0.00,WeatherCatV1.15B25,2013-11-20 05:16:00,
2013-11-20 00:21:00,26.9,21.0,30.35,NE,43,1.0,5.0,78,0.00,,,0.00,WeatherCatV1.15B25,2013-11-20 05:21:00,
2013-11-20 00:26:00,26.8,20.9,30.36,North,11,2.0,4.0,78,0.00,,,0.00,WeatherCatV1.15B25,2013-11-20 05:26:00,
2013-11-20 00:31:00,26.7,21.1,30.36,NE,34,2.0,6.0,79,0.00,,,0.00,WeatherCatV1.15B25,2013-11-20 05:31:00,
2013-11-20 00:36:00,26.6,21.0,30.36,NNE,24,4.0,5.0,79,0.00,,,0.00,WeatherCatV1.15B25,2013-11-20 05:36:00,
2013-11-20 00:41:00,26.4,20.8,30.36,NE,41,0.0,2.0,79,0.00,,,0.00,WeatherCatV1.15B25,2013-11-20 05:41:00,
2013-11-20 00:46:00,26.2,20.6,30.36,NE,51,1.0,5.0,79,0.00,,,0.00,WeatherCatV1.15B25,2013-11-20 05:46:00,
2013-11-20 00:51:00,26.1,20.8,30.37,ESE,121,0.0,2.0,80,0.00,,,0.00,WeatherCatV1.15B25,2013-11-20 05:51:00,
2013-11-20 00:56:00,26.1,20.8,30.37,ENE,69,0.0,1.0,80,0.00,,,0.00,WeatherCatV1.15B25,2013-11-20 05:56:00,
2013-11-20 01:01:00,26.0,20.7,30.37,NE,37,4.0,4.0,80,0.00,,,0.00,WeatherCatV1.15B25,2013-11-20 06:01:00,
2013-11-20 01:06:00,25.8,20.5,30.37,NE,37,0.0,0.0,80,0.00,,,0.00,WeatherCatV1.15B25,2013-11-20 06:06:00,
2013-11-20 01:11:00,25.7,20.4,30.38,ENE,75,0.0,4.0,80,0.00,,,0.00,WeatherCatV1.15B25,2013-11-20 06:11:00,
2013-11-20 01:16:00,25.7,20.4,30.38,North,0,0.0,5.0,80,0.00,,,0.00,WeatherCatV1.15B25,2013-11-20 06:16:00,
2013-11-20 01:21:00,25.8,20.5,30.38,NE,36,0.0,6.0,80,0.00,,,0.00,WeatherCatV1.15B25,2013-11-20 06:21:00,
2013-11-20 01:26:00,25.8,20.5,30.38,NNE,22,2.0,4.0,80,0.00,,,0.00,WeatherCatV1.15B25,2013-11-20 06:26:00,
2013-11-20 01:31:00,25.7,20.4,30.38,NE,49,0.0,2.0,80,0.00,,,0.00,WeatherCatV1.15B25,2013-11-20 06:31:00,
2013-11-20 01:36:00,25.6,20.3,30.38,NNE,24,0.0,4.0,80,0.00,,,0.00,WeatherCatV1.15B25,2013-11-20 06:36:00,
2013-11-20 01:41:00,25.4,20.1,30.38,NNE,30,5.0,6.0,80,0.00,,,0.00,WeatherCatV1.15B25,2013-11-20 06:41:00,
2013-11-20 01:46:00,25.5,20.2,30.39,NE,35,0.0,4.0,80,0.00,,,0.00,WeatherCatV1.15B25,2013-11-20 06:46:00,
2013-11-20 01:51:00,25.4,20.1,30.39,NNE,17,0.0,4.0,80,0.00,,,0.00,WeatherCatV1.15B25,2013-11-20 06:51:00,
2013-11-20 01:56:00,25.2,19.9,30.39,NNE,31,3.0,5.0,80,0.00,,,0.00,WeatherCatV1.15B25,2013-11-20 06:56:00,
2013-11-20 02:01:00,25.1,19.8,30.39,NNW,336,2.0,6.0,80,0.00,,,0.00,WeatherCatV1.15B25,2013-11-20 07:01:00,
2013-11-20 02:06:00,25.1,19.8,30.40,NNE,26,0.0,0.0,80,0.00,,,0.00,WeatherCatV1.15B25,2013-11-20 07:06:00,
2013-11-20 02:11:00,24.9,19.9,30.40,NE,44,3.0,3.0,81,0.00,,,0.00,WeatherCatV1.15B25,2013-11-20 07:11:00,
2013-11-20 02:16:00,24.9,19.9,30.40,NE,44,0.0,5.0,81,0.00,,,0.00,WeatherCatV1.15B25,2013-11-20 07:16:00,
2013-11-20 02:21:00,24.8,19.8,30.40,NE,46,0.0,0.0,81,0.00,,,0.00,WeatherCatV1.15B25,2013-11-20 07:21:00,
2013-11-20 02:26:00,24.9,19.6,30.40,NE,35,0.0,0.0,80,0.00,,,0.00,WeatherCatV1.15B25,2013-11-20 07:26:00,
2013-11-20 02:31:00,24.8,19.5,30.40,NE,42,0.0,3.0,80,0.00,,,0.00,WeatherCatV1.15B25,2013-11-20 07:31:00,
2013-11-20 02:36:00,24.8,19.5,30.40,NNE,30,1.0,3.0,80,0.00,,,0.00,WeatherCatV1.15B25,2013-11-20 07:36:00,
2013-11-20 02:41:00,24.8,19.5,30.40,North,5,4.0,4.0,80,0.00,,,0.00,WeatherCatV1.15B25,2013-11-20 07:41:00,
2013-11-20 02:46:00,24.7,19.4,30.40,NE,54,0.0,3.0,80,0.00,,,0.00,WeatherCatV1.15B25,2013-11-20 07:46:00,
2013-11-20 02:51:00,24.7,19.4,30.41,East,84,2.0,3.0,80,0.00,,,0.00,WeatherCatV1.15B25,2013-11-20 07:51:00,
2013-11-20 02:56:00,24.7,19.4,30.41,ENE,63,0.0,2.0,80,0.00,,,0.00,WeatherCatV1.15B25,2013-11-20 07:56:00,
2013-11-20 03:01:00,24.7,19.4,30.41,ENE,63,0.0,3.0,80,0.00,,,0.00,WeatherCatV1.15B25,2013-11-20 08:01:00,
2013-11-20 03:06:00,24.7,19.4,30.42,North,9,2.0,4.0,80,0.00,,,0.00,WeatherCatV1.15B25,2013-11-20 08:06:00,
2013-11-20 03:11:00,24.7,19.1,30.42,NNE,14,2.0,6.0,79,0.00,,,0.00,WeatherCatV1.15B25,2013-11-20 08:11:00,
2013-11-20 03:16:00,24.7,19.1,30.42,North,5,2.0,3.0,79,0.00,,,0.00,WeatherCatV1.15B25,2013-11-20 08:16:00,
2013-11-20 03:21:00,24.8,18.9,30.42,NNE,33,2.0,5.0,78,0.00,,,0.00,WeatherCatV1.15B25,2013-11-20 08:21:00,
2013-11-20 03:26:00,24.9,18.7,30.42,NE,37,2.0,3.0,77,0.00,,,0.00,WeatherCatV1.15B25,2013-11-20 08:26:00,
2013-11-20 03:31:00,24.8,18.6,30.43,NE,48,0.0,6.0,77,0.00,,,0.00,WeatherCatV1.15B25,2013-11-20 08:31:00,
2013-11-20 03:36:00,24.8,18.3,30.43,NNE,24,0.0,4.0,76,0.00,,,0.00,WeatherCatV1.15B25,2013-11-20 08:36:00,
2013-11-20 03:41:00,24.8,18.3,30.43,North,0,2.0,2.0,76,0.00,,,0.00,WeatherCatV1.15B25,2013-11-20 08:41:00,
2013-11-20 03:46:00,24.8,18.3,30.43,NNW,337,1.0,6.0,76,0.00,,,0.00,WeatherCatV1.15B25,2013-11-20 08:46:00,
2013-11-20 03:51:00,24.8,18.0,30.43,NNE,25,0.0,4.0,75,0.00,,,0.00,WeatherCatV1.15B25,2013-11-20 08:51:00,
2013-11-20 03:56:00,24.8,18.0,30.43,NNE,23,0.0,4.0,75,0.00,,,0.00,WeatherCatV1.15B25,2013-11-20 08:56:00,
2013-11-20 04:01:00,24.7,17.9,30.44,North,0,0.0,5.0,75,0.00,,,0.00,WeatherCatV1.15B25,2013-11-20 09:01:00,
2013-11-20 04:06:00,24.8,18.0,30.44,NE,41,0.0,6.0,75,0.00,,,0.00,WeatherCatV1.15B25,2013-11-20 09:06:00,
2013-11-20 04:11:00,24.8,18.0,30.44,NE,44,0.0,2.0,75,0.00,,,0.00,WeatherCatV1.15B25,2013-11-20 09:11:00,
2013-11-20 04:16:00,24.6,18.1,30.44,ENE,58,2.0,6.0,76,0.00,,,0.00,WeatherCatV1.15B25,2013-11-20 09:16:00,
2013-11-20 04:21:00,24.6,18.1,30.45,NE,39,0.0,4.0,76,0.00,,,0.00,WeatherCatV1.15B25,2013-11-20 09:21:00,
2013-11-20 04:26:00,24.5,18.0,30.45,NE,34,3.0,4.0,76,0.00,,,0.00,WeatherCatV1.15B25,2013-11-20 09:26:00,
2013-11-20 04:31:00,24.4,17.9,30.45,NNW,329,4.0,4.0,76,0.00,,,0.00,WeatherCatV1.15B25,2013-11-20 09:31:00,
2013-11-20 04:36:00,24.3,18.1,30.45,North,0,5.0,5.0,77,0.00,,,0.00,WeatherCatV1.15B25,2013-11-20 09:36:00,
2013-11-20 04:41:00,24.2,18.0,30.45,NNE,19,0.0,1.0,77,0.00,,,0.00,WeatherCatV1.15B25,2013-11-20 09:41:00,
2013-11-20 04:46:00,24.1,18.0,30.46,NE,47,4.0,5.0,77,0.00,,,0.00,WeatherCatV1.15B25,2013-11-20 09:46:00,
2013-11-20 04:51:00,24.0,18.2,30.46,NNE,13,0.0,3.0,78,0.00,,,0.00,WeatherCatV1.15B25,2013-11-20 09:51:00,
2013-11-20 04:56:00,23.9,18.1,30.47,NE,53,0.0,5.0,78,0.00,,,0.00,WeatherCatV1.15B25,2013-11-20 09:56:00,
2013-11-20 05:01:00,23.9,18.1,30.47,North,355,0.0,2.0,78,0.00,,,0.00,WeatherCatV1.15B25,2013-11-20 10:01:00,
2013-11-20 05:06:00,23.8,18.0,30.47,NNE,28,0.0,11.0,78,0.00,,,0.00,WeatherCatV1.15B25,2013-11-20 10:06:00,
2013-11-20 05:11:00,23.7,17.9,30.48,NE,41,4.0,8.0,78,0.00,,,0.00,WeatherCatV1.15B25,2013-11-20 10:11:00,
2013-11-20 05:16:00,23.7,17.9,30.48,North,11,0.0,2.0,78,0.00,,,0.00,WeatherCatV1.15B25,2013-11-20 10:16:00,
2013-11-20 05:21:00,23.6,17.8,30.49,North,5,2.0,5.0,78,0.00,,,0.00,WeatherCatV1.15B25,2013-11-20 10:21:00,
2013-11-20 05:26:00,23.5,18.0,30.49,North,5,3.0,5.0,79,0.00,,,0.00,WeatherCatV1.15B25,2013-11-20 10:26:00,
2013-11-20 05:31:00,23.4,17.9,30.49,North,5,0.0,5.0,79,0.00,,,0.00,WeatherCatV1.15B25,2013-11-20 10:31:00,
2013-11-20 05:36:00,23.5,18.0,30.49,North,5,3.0,5.0,79,0.00,,,0.00,WeatherCatV1.15B25,2013-11-20 10:36:00,
2013-11-20 05:41:00,23.4,17.9,30.50,NNW,344,4.0,7.0,79,0.00,,,0.00,WeatherCatV1.15B25,2013-11-20 10:41:00,
2013-11-20 05:46:00,23.4,17.9,30.50,NNW,333,1.0,6.0,79,0.00,,,0.00,WeatherCatV1.15B25,2013-11-20 10:46:00,
2013-11-20 05:51:00,23.3,17.8,30.50,NE,51,6.0,6.0,79,0.00,,,0.00,WeatherCatV1.15B25,2013-11-20 10:51:00,
2013-11-20 05:56:00,23.3,17.8,30.50,North,0,2.0,5.0,79,0.00,,,0.00,WeatherCatV1.15B25,2013-11-20 10:56:00,
2013-11-20 06:01:00,23.2,17.7,30.51,North,0,3.0,4.0,79,0.00,,,0.00,WeatherCatV1.15B25,2013-11-20 11:01:00,
2013-11-20 06:06:00,23.1,17.3,30.51,NE,34,2.0,4.0,78,0.00,,,0.00,WeatherCatV1.15B25,2013-11-20 11:06:00,
2013-11-20 06:11:00,23.1,17.3,30.52,North,11,0.0,2.0,78,0.00,,,0.00,WeatherCatV1.15B25,2013-11-20 11:11:00,
2013-11-20 06:16:00,23.0,17.5,30.52,North,5,1.0,3.0,79,0.00,,,0.00,WeatherCatV1.15B25,2013-11-20 11:16:00,
2013-11-20 06:21:00,22.9,17.4,30.52,NNE,22,3.0,4.0,79,0.00,,,0.00,WeatherCatV1.15B25,2013-11-20 11:21:00,
2013-11-20 06:26:00,22.8,17.3,30.52,North,351,0.0,3.0,79,0.00,,,0.00,WeatherCatV1.15B25,2013-11-20 11:26:00,
2013-11-20 06:31:00,22.7,17.2,30.53,NW,325,1.0,4.0,79,0.00,,,0.00,WeatherCatV1.15B25,2013-11-20 11:31:00,
2013-11-20 06:36:00,22.7,17.2,30.53,NNE,15,1.0,11.0,79,0.00,,,0.00,WeatherCatV1.15B25,2013-11-20 11:36:00,
2013-11-20 06:41:00,22.6,17.1,30.53,North,355,2.0,3.0,79,0.00,,,0.00,WeatherCatV1.15B25,2013-11-20 11:41:00,
2013-11-20 06:46:00,22.5,17.0,30.53,North,0,5.0,5.0,79,0.00,,,0.00,WeatherCatV1.15B25,2013-11-20 11:46:00,
2013-11-20 06:51:00,22.4,16.9,30.53,NE,46,6.0,6.0,79,0.00,,,0.00,WeatherCatV1.15B25,2013-11-20 11:51:00,
2013-11-20 06:56:00,22.5,17.0,30.54,ENE,59,0.0,7.0,79,0.00,,,0.00,WeatherCatV1.15B25,2013-11-20 11:56:00,
2013-11-20 07:01:00,22.5,17.0,30.54,NNE,13,2.0,3.0,79,0.00,,,0.00,WeatherCatV1.15B25,2013-11-20 12:01:00,
2013-11-20 07:06:00,22.4,16.9,30.54,NNE,28,0.0,4.0,79,0.00,,,0.00,WeatherCatV1.15B25,2013-11-20 12:06:00,
2013-11-20 07:11:00,22.5,17.0,30.55,North,11,1.0,5.0,79,0.00,,,0.00,WeatherCatV1.15B25,2013-11-20 12:11:00,
2013-11-20 07:16:00,22.6,17.1,30.54,NNE,13,0.0,7.0,79,0.00,,,0.00,WeatherCatV1.15B25,2013-11-20 12:16:00,
2013-11-20 07:21:00,22.7,17.2,30.55,North,9,3.0,7.0,79,0.00,,,0.00,WeatherCatV1.15B25,2013-11-20 12:21:00,
2013-11-20 07:26:00,22.8,17.0,30.55,NNE,32,2.0,5.0,78,0.00,,,0.00,WeatherCatV1.15B25,2013-11-20 12:26:00,
2013-11-20 07:31:00,22.9,17.1,30.55,NNE,18,0.0,4.0,78,0.00,,,0.00,WeatherCatV1.15B25,2013-11-20 12:31:00,
2013-11-20 07:36:00,23.0,17.2,30.55,NNE,30,0.0,5.0,78,0.00,,,0.00,WeatherCatV1.15B25,2013-11-20 12:36:00,
2013-11-20 07:41:00,23.1,17.3,30.55,ENE,58,2.0,4.0,78,0.00,,,0.00,WeatherCatV1.15B25,2013-11-20 12:41:00,
2013-11-20 07:46:00,23.2,17.4,30.55,NE,35,2.0,4.0,78,0.00,,,0.00,WeatherCatV1.15B25,2013-11-20 12:46:00,
2013-11-20 07:51:00,23.3,17.2,30.55,NE,44,0.0,5.0,77,0.00,,,0.00,WeatherCatV1.15B25,2013-11-20 12:51:00,
2013-11-20 07:56:00,23.4,17.3,30.55,NNE,33,5.0,7.0,77,0.00,,,0.00,WeatherCatV1.15B25,2013-11-20 12:56:00,
2013-11-20 08:01:00,23.5,17.4,30.56,NE,36,3.0,4.0,77,0.00,,,0.00,WeatherCatV1.15B25,2013-11-20 13:01:00,
2013-11-20 08:06:00,23.6,17.5,30.56,NE,40,2.0,5.0,77,0.00,,,0.00,WeatherCatV1.15B25,2013-11-20 13:06:00,
2013-11-20 08:11:00,23.8,17.4,30.56,NNE,26,7.0,7.0,76,0.00,,,0.00,WeatherCatV1.15B25,2013-11-20 13:11:00,
2013-11-20 08:16:00,23.9,17.5,30.56,NNE,29,5.0,6.0,76,0.00,,,0.00,WeatherCatV1.15B25,2013-11-20 13:16:00,
2013-11-20 08:21:00,24.1,17.7,30.56,NNE,32,4.0,7.0,76,0.00,,,0.00,WeatherCatV1.15B25,2013-11-20 13:21:00,
2013-11-20 08:26:00,24.4,17.6,30.56,NE,40,1.0,6.0,75,0.00,,,0.00,WeatherCatV1.15B25,2013-11-20 13:26:00,
2013-11-20 08:31:00,24.5,17.7,30.56,NE,42,6.0,7.0,75,0.00,,,0.00,WeatherCatV1.15B25,2013-11-20 13:31:00,
2013-11-20 08:36:00,24.7,17.9,30.57,NE,34,3.0,7.0,75,0.00,,,0.00,WeatherCatV1.15B25,2013-11-20 13:36:00,
2013-11-20 08:41:00,24.9,17.8,30.57,NNE,22,0.0,6.0,74,0.00,,,0.00,WeatherCatV1.15B25,2013-11-20 13:41:00,
2013-11-20 08:47:00,25.1,17.7,30.57,North,349,3.0,7.0,73,0.00,,,0.00,WeatherCatV1.15B25,2013-11-20 13:47:00,
2013-11-20 08:51:00,25.1,17.7,30.57,NE,35,0.0,6.0,73,0.00,,,0.00,WeatherCatV1.15B25,2013-11-20 13:51:00,
2013-11-20 08:57:00,25.4,18.3,30.57,NE,44,0.0,5.0,74,0.00,,,0.00,WeatherCatV1.15B25,2013-11-20 13:57:00,
2013-11-20 09:02:00,25.9,18.1,30.57,North,0,1.0,4.0,72,0.00,,,0.00,WeatherCatV1.15B25,2013-11-20 14:02:00,
2013-11-20 09:06:00,26.1,18.0,30.58,NE,40,1.0,8.0,71,0.00,,,0.00,WeatherCatV1.15B25,2013-11-20 14:06:00,
2013-11-20 09:11:00,26.2,18.1,30.58,North,9,3.0,9.0,71,0.00,,,0.00,WeatherCatV1.15B25,2013-11-20 14:11:00,
2013-11-20 09:17:00,26.3,17.9,30.58,NNE,30,4.0,6.0,70,0.00,,,0.00,WeatherCatV1.15B25,2013-11-20 14:17:00,
2013-11-20 09:22:00,26.5,18.1,30.58,NNE,28,6.0,10.0,70,0.00,,,0.00,WeatherCatV1.15B25,2013-11-20 14:22:00,
2013-11-20 09:27:00,26.6,18.2,30.58,NE,40,1.0,7.0,70,0.00,,,0.00,WeatherCatV1.15B25,2013-11-20 14:27:00,
2013-11-20 09:32:00,27.0,18.5,30.58,NE,39,3.0,4.0,70,0.00,,,0.00,WeatherCatV1.15B25,2013-11-20 14:32:00,
2013-11-20 09:37:00,27.4,18.6,30.58,NNE,30,5.0,9.0,69,0.00,,,0.00,WeatherCatV1.15B25,2013-11-20 14:37:00,
2013-11-20 09:42:00,27.4,18.3,30.58,NE,48,1.0,6.0,68,0.00,,,0.00,WeatherCatV1.15B25,2013-11-20 14:42:00,
2013-11-20 09:47:00,27.6,18.4,30.58,NNE,13,2.0,5.0,68,0.00,,,0.00,WeatherCatV1.15B25,2013-11-20 14:47:00,
2013-11-20 09:52:00,27.8,18.3,30.59,North,0,2.0,10.0,67,0.00,,,0.00,WeatherCatV1.15B25,2013-11-20 14:52:00,
2013-11-20 09:57:00,27.9,18.4,30.59,NE,40,6.0,6.0,67,0.00,,,0.00,WeatherCatV1.15B25,2013-11-20 14:57:00,
2013-11-20 10:02:00,28.2,18.0,30.59,NW,322,3.0,11.0,65,0.00,,,0.00,WeatherCatV1.15B25,2013-11-20 15:02:00,
2013-11-20 10:07:00,28.4,18.2,30.59,NNW,338,3.0,6.0,65,0.00,,,0.00,WeatherCatV1.15B25,2013-11-20 15:07:00,
2013-11-20 10:12:00,28.5,18.3,30.59,NW,321,3.0,7.0,65,0.00,,,0.00,WeatherCatV1.15B25,2013-11-20 15:12:00,
2013-11-20 10:16:00,28.8,18.2,30.58,NNE,19,1.0,7.0,64,0.00,,,0.00,WeatherCatV1.15B25,2013-11-20 15:16:00,
2013-11-20 10:21:00,28.8,18.2,30.58,NE,49,1.0,7.0,64,0.00,,,0.00,WeatherCatV1.15B25,2013-11-20 15:21:00,
2013-11-20 10:26:00,29.2,18.9,30.59,NE,51,0.0,7.0,65,0.00,,,0.00,WeatherCatV1.15B25,2013-11-20 15:26:00,
2013-11-20 10:31:00,29.5,18.5,30.59,NE,37,4.0,5.0,63,0.00,,,0.00,WeatherCatV1.15B25,2013-11-20 15:31:00,
2013-11-20 10:36:00,29.6,18.2,30.59,NNE,19,6.0,9.0,62,0.00,,,0.00,WeatherCatV1.15B25,2013-11-20 15:36:00,
2013-11-20 10:41:00,29.6,18.6,30.59,NE,41,3.0,6.0,63,0.00,,,0.00,WeatherCatV1.15B25,2013-11-20 15:41:00,
2013-11-20 10:46:00,29.7,18.3,30.59,NE,49,2.0,7.0,62,0.00,,,0.00,WeatherCatV1.15B25,2013-11-20 15:46:00,
2013-11-20 10:51:00,29.9,18.5,30.59,NNE,20,0.0,4.0,62,0.00,,,0.00,WeatherCatV1.15B25,2013-11-20 15:51:00,
2013-11-20 10:56:00,30.2,18.4,30.59,NNE,28,0.0,7.0,61,0.00,,,0.00,WeatherCatV1.15B25,2013-11-20 15:56:00,
2013-11-20 11:01:00,30.3,18.5,30.58,NNW,341,1.0,5.0,61,0.00,,,0.00,WeatherCatV1.15B25,2013-11-20 16:01:00,
2013-11-20 11:06:00,30.6,18.8,30.58,North,0,3.0,4.0,61,0.00,,,0.00,WeatherCatV1.15B25,2013-11-20 16:06:00,
2013-11-20 11:11:00,30.8,18.2,30.58,NNE,32,4.0,5.0,59,0.00,,,0.00,WeatherCatV1.15B25,2013-11-20 16:11:00,
2013-11-20 11:16:00,31.0,18.8,30.57,North,5,4.0,7.0,60,0.00,,,0.00,WeatherCatV1.15B25,2013-11-20 16:16:00,
2013-11-20 11:22:00,31.1,18.9,30.57,NNE,15,1.0,5.0,60,0.00,,,0.00,WeatherCatV1.15B25,2013-11-20 16:22:00,
2013-11-20 11:27:00,31.1,18.5,30.57,NE,37,3.0,5.0,59,0.00,,,0.00,WeatherCatV1.15B25,2013-11-20 16:27:00,
2013-11-20 11:32:00,31.5,18.8,30.57,NNE,33,0.0,6.0,59,0.00,,,0.00,WeatherCatV1.15B25,2013-11-20 16:32:00,
2013-11-20 11:37:00,31.7,19.0,30.58,NNE,28,3.0,6.0,59,0.00,,,0.00,WeatherCatV1.15B25,2013-11-20 16:37:00,
2013-11-20 11:42:00,31.9,18.8,30.57,North,11,2.0,5.0,58,0.00,,,0.00,WeatherCatV1.15B25,2013-11-20 16:42:00,
2013-11-20 11:47:00,32.0,20.5,30.57,NNE,26,4.0,4.0,62,0.00,,,0.00,WeatherCatV1.15B25,2013-11-20 16:47:00,
2013-11-20 11:52:00,32.0,18.5,30.57,NNE,19,2.0,4.0,57,0.00,,,0.00,WeatherCatV1.15B25,2013-11-20 16:52:00,
2013-11-20 11:57:00,32.4,19.3,30.57,NNE,17,0.0,5.0,58,0.00,,,0.00,WeatherCatV1.15B25,2013-11-20 16:57:00,
2013-11-20 12:02:00,32.8,19.3,30.57,NE,40,1.0,2.0,57,0.00,,,0.00,WeatherCatV1.15B25,2013-11-20 17:02:00,
2013-11-20 12:07:00,33.2,19.2,30.57,North,355,5.0,9.0,56,0.00,,,0.00,WeatherCatV1.15B25,2013-11-20 17:07:00,
2013-11-20 12:12:00,33.2,19.2,30.57,NE,55,2.0,5.0,56,0.00,,,0.00,WeatherCatV1.15B25,2013-11-20 17:12:00,
2013-11-20 12:16:00,33.3,19.3,30.57,NNW,340,3.0,6.0,56,0.00,,,0.00,WeatherCatV1.15B25,2013-11-20 17:16:00,
2013-11-20 12:21:00,33.4,19.0,30.57,North,11,3.0,4.0,55,0.00,,,0.00,WeatherCatV1.15B25,2013-11-20 17:21:00,
2013-11-20 12:26:00,33.4,19.0,30.57,NNW,341,5.0,5.0,55,0.00,,,0.00,WeatherCatV1.15B25,2013-11-20 17:26:00,
2013-11-20 12:31:00,33.5,19.5,30.57,NNE,13,1.0,5.0,56,0.00,,,0.00,WeatherCatV1.15B25,2013-11-20 17:31:00,
2013-11-20 12:36:00,33.6,19.2,30.57,NE,54,2.0,5.0,55,0.00,,,0.00,WeatherCatV1.15B25,2013-11-20 17:36:00,
2013-11-20 12:41:00,33.5,19.5,30.57,NNE,32,3.0,4.0,56,0.00,,,0.00,WeatherCatV1.15B25,2013-11-20 17:41:00,
2013-11-20 12:46:00,33.8,19.4,30.57,North,355,2.0,6.0,55,0.00,,,0.00,WeatherCatV1.15B25,2013-11-20 17:46:00,
2013-11-20 12:51:00,33.7,19.7,30.57,North,0,3.0,5.0,56,0.00,,,0.00,WeatherCatV1.15B25,2013-11-20 17:51:00,
2013-11-20 12:56:00,33.6,19.2,30.57,NNW,333,0.0,7.0,55,0.00,,,0.00,WeatherCatV1.15B25,2013-11-20 17:56:00,
2013-11-20 13:01:00,33.5,19.1,30.57,NE,56,3.0,7.0,55,0.00,,,0.00,WeatherCatV1.15B25,2013-11-20 18:01:00,
2013-11-20 13:06:00,33.5,19.1,30.57,NNE,29,3.0,3.0,55,0.00,,,0.00,WeatherCatV1.15B25,2013-11-20 18:06:00,
2013-11-20 13:11:00,33.4,19.4,30.57,ENE,75,4.0,5.0,56,0.00,,,0.00,WeatherCatV1.15B25,2013-11-20 18:11:00,
2013-11-20 13:16:00,33.5,19.5,30.57,NW,312,0.0,2.0,56,0.00,,,0.00,WeatherCatV1.15B25,2013-11-20 18:16:00,
2013-11-20 13:21:00,33.5,18.7,30.57,NNE,32,2.0,3.0,54,0.00,,,0.00,WeatherCatV1.15B25,2013-11-20 18:21:00,
2013-11-20 13:26:00,33.3,18.9,30.57,North,355,0.0,6.0,55,0.00,,,0.00,WeatherCatV1.15B25,2013-11-20 18:26:00,
2013-11-20 13:31:00,33.2,19.2,30.57,North,355,0.0,2.0,56,0.00,,,0.00,WeatherCatV1.15B25,2013-11-20 18:31:00,
2013-11-20 13:36:00,33.4,19.0,30.57,NNE,19,2.0,4.0,55,0.00,,,0.00,WeatherCatV1.15B25,2013-11-20 18:36:00,
2013-11-20 13:41:00,33.4,18.6,30.57,NNE,20,0.0,4.0,54,0.00,,,0.00,WeatherCatV1.15B25,2013-11-20 18:41:00,
2013-11-20 13:46:00,33.5,18.7,30.57,NNW,334,5.0,8.0,54,0.00,,,0.00,WeatherCatV1.15B25,2013-11-20 18:46:00,
2013-11-20 13:51:00,33.5,19.1,30.57,NNE,32,1.0,2.0,55,0.00,,,0.00,WeatherCatV1.15B25,2013-11-20 18:51:00,
2013-11-20 13:56:00,33.8,18.9,30.57,NW,318,0.0,3.0,54,0.00,,,0.00,WeatherCatV1.15B25,2013-11-20 18:56:00,
2013-11-20 14:01:00,33.8,18.5,30.57,NNE,33,3.0,3.0,53,0.00,,,0.00,WeatherCatV1.15B25,2013-11-20 19:01:00,
2013-11-20 14:06:00,33.6,18.3,30.57,North,355,2.0,5.0,53,0.00,,,0.00,WeatherCatV1.15B25,2013-11-20 19:06:00,
2013-11-20 14:11:00,33.6,18.8,30.57,ENE,67,0.0,4.0,54,0.00,,,0.00,WeatherCatV1.15B25,2013-11-20 19:11:00,
2013-11-20 14:16:00,33.5,18.7,30.57,NNW,342,0.0,3.0,54,0.00,,,0.00,WeatherCatV1.15B25,2013-11-20 19:16:00,
2013-11-20 14:21:00,33.5,18.2,30.58,NNE,26,3.0,4.0,53,0.00,,,0.00,WeatherCatV1.15B25,2013-11-20 19:21:00,
2013-11-20 14:26:00,33.5,18.2,30.58,North,0,1.0,3.0,53,0.00,,,0.00,WeatherCatV1.15B25,2013-11-20 19:26:00,
2013-11-20 14:31:00,33.5,18.7,30.57,NNE,22,2.0,3.0,54,0.00,,,0.00,WeatherCatV1.15B25,2013-11-20 19:31:00,
2013-11-20 14:36:00,33.5,18.2,30.58,North,355,0.0,0.0,53,0.00,,,0.00,WeatherCatV1.15B25,2013-11-20 19:36:00,
2013-11-20 14:41:00,33.5,18.2,30.58,ENE,68,0.0,3.0,53,0.00,,,0.00,WeatherCatV1.15B25,2013-11-20 19:41:00,
2013-11-20 14:46:00,33.5,18.2,30.58,NNE,30,1.0,1.0,53,0.00,,,0.00,WeatherCatV1.15B25,2013-11-20 19:46:00,
2013-11-20 14:51:00,33.6,18.3,30.58,North,355,4.0,4.0,53,0.00,,,0.00,WeatherCatV1.15B25,2013-11-20 19:51:00,
2013-11-20 14:56:00,33.7,18.4,30.58,NNE,33,1.0,2.0,53,0.00,,,0.00,WeatherCatV1.15B25,2013-11-20 19:56:00,
2013-11-20 15:01:00,33.8,18.5,30.58,NNW,340,0.0,0.0,53,0.00,,,0.00,WeatherCatV1.15B25,2013-11-20 20:01:00,
2013-11-20 15:06:00,33.8,18.5,30.58,ENE,73,0.0,0.0,53,0.00,,,0.00,WeatherCatV1.15B25,2013-11-20 20:06:00,
2013-11-20 15:11:00,33.7,18.8,30.58,ENE,73,0.0,0.0,54,0.00,,,0.00,WeatherCatV1.15B25,2013-11-20 20:11:00,
2013-11-20 15:16:00,33.6,18.3,30.58,NW,306,0.0,2.0,53,0.00,,,0.00,WeatherCatV1.15B25,2013-11-20 20:16:00,
2013-11-20 15:21:00,33.6,18.8,30.58,NNE,32,0.0,1.0,54,0.00,,,0.00,WeatherCatV1.15B25,2013-11-20 20:21:00,
2013-11-20 15:26:00,33.6,18.3,30.58,NW,318,0.0,0.0,53,0.00,,,0.00,WeatherCatV1.15B25,2013-11-20 20:26:00,
2013-11-20 15:31:00,33.5,18.7,30.58,NW,319,0.0,1.0,54,0.00,,,0.00,WeatherCatV1.15B25,2013-11-20 20:31:00,
2013-11-20 15:36:00,33.5,18.2,30.58,NE,40,0.0,2.0,53,0.00,,,0.00,WeatherCatV1.15B25,2013-11-20 20:36:00,
2013-11-20 15:41:00,33.5,18.2,30.58,NE,35,0.0,2.0,53,0.00,,,0.00,WeatherCatV1.15B25,2013-11-20 20:41:00,
2013-11-20 15:46:00,33.5,18.2,30.59,NW,320,0.0,0.0,53,0.00,,,0.00,WeatherCatV1.15B25,2013-11-20 20:46:00,
2013-11-20 15:51:00,33.4,18.6,30.58,NW,320,1.0,1.0,54,0.00,,,0.00,WeatherCatV1.15B25,2013-11-20 20:51:00,
2013-11-20 15:56:00,33.3,18.0,30.58,NW,321,2.0,3.0,53,0.00,,,0.00,WeatherCatV1.15B25,2013-11-20 20:56:00,
2013-11-20 16:01:00,33.1,17.9,30.58,NW,323,0.0,0.0,53,0.00,,,0.00,WeatherCatV1.15B25,2013-11-20 21:01:00,
2013-11-20 16:06:00,33.0,17.8,30.58,NW,323,0.0,3.0,53,0.00,,,0.00,WeatherCatV1.15B25,2013-11-20 21:06:00,
2013-11-20 16:11:00,32.8,17.6,30.59,NW,322,0.0,2.0,53,0.00,,,0.00,WeatherCatV1.15B25,2013-11-20 21:11:00,
2013-11-20 16:16:00,32.6,17.4,30.58,NW,323,0.0,0.0,53,0.00,,,0.00,WeatherCatV1.15B25,2013-11-20 21:16:00,
2013-11-20 16:21:00,32.5,17.3,30.59,NW,323,0.0,0.0,53,0.00,,,0.00,WeatherCatV1.15B25,2013-11-20 21:21:00,
2013-11-20 16:26:00,32.3,17.5,30.59,NW,323,0.0,0.0,54,0.00,,,0.00,WeatherCatV1.15B25,2013-11-20 21:26:00,
2013-11-20 16:31:00,32.1,17.4,30.58,NW,322,0.0,0.0,54,0.00,,,0.00,WeatherCatV1.15B25,2013-11-20 21:31:00,
2013-11-20 16:36:00,31.8,17.1,30.59,NW,322,0.0,0.0,54,0.00,,,0.00,WeatherCatV1.15B25,2013-11-20 21:36:00,
2013-11-20 16:41:00,31.5,17.2,30.59,NW,323,0.0,0.0,55,0.00,,,0.00,WeatherCatV1.15B25,2013-11-20 21:41:00,
2013-11-20 16:46:00,31.3,17.0,30.59,NW,322,0.0,1.0,55,0.00,,,0.00,WeatherCatV1.15B25,2013-11-20 21:46:00,
2013-11-20 16:51:00,31.2,17.4,30.59,NW,323,0.0,0.0,56,0.00,,,0.00,WeatherCatV1.15B25,2013-11-20 21:51:00,
2013-11-20 16:56:00,31.0,17.2,30.59,NNE,30,0.0,2.0,56,0.00,,,0.00,WeatherCatV1.15B25,2013-11-20 21:56:00,
2013-11-20 17:02:00,30.9,17.1,30.60,NNE,30,0.0,2.0,56,0.00,,,0.00,WeatherCatV1.15B25,2013-11-20 22:02:00,
2013-11-20 17:07:00,30.8,17.4,30.60,NE,44,2.0,2.0,57,0.00,,,0.00,WeatherCatV1.15B25,2013-11-20 22:07:00,
2013-11-20 17:12:00,30.7,17.3,30.60,NE,45,0.0,3.0,57,0.00,,,0.00,WeatherCatV1.15B25,2013-11-20 22:12:00,
2013-11-20 17:16:00,30.6,17.6,30.60,NE,44,3.0,3.0,58,0.00,,,0.00,WeatherCatV1.15B25,2013-11-20 22:16:00,
2013-11-20 17:21:00,30.5,17.5,30.60,NE,40,2.0,3.0,58,0.00,,,0.00,WeatherCatV1.15B25,2013-11-20 22:21:00,
2013-11-20 17:26:00,30.4,17.8,30.60,NE,43,1.0,3.0,59,0.00,,,0.00,WeatherCatV1.15B25,2013-11-20 22:26:00,
2013-11-20 17:31:00,30.3,17.7,30.60,NE,48,4.0,4.0,59,0.00,,,0.00,WeatherCatV1.15B25,2013-11-20 22:31:00,
2013-11-20 17:37:00,30.1,17.9,30.60,NE,35,2.0,4.0,60,0.00,,,0.00,WeatherCatV1.15B25,2013-11-20 22:37:00,
2013-11-20 17:42:00,29.9,17.7,30.60,NNE,18,0.0,3.0,60,0.00,,,0.00,WeatherCatV1.15B25,2013-11-20 22:42:00,
2013-11-20 17:47:00,29.7,17.9,30.60,NE,38,3.0,5.0,61,0.00,,,0.00,WeatherCatV1.15B25,2013-11-20 22:47:00,
2013-11-20 17:52:00,29.7,17.9,30.60,NE,38,0.0,3.0,61,0.00,,,0.00,WeatherCatV1.15B25,2013-11-20 22:52:00,
2013-11-20 17:56:00,29.6,17.8,30.60,NNE,30,2.0,4.0,61,0.00,,,0.00,WeatherCatV1.15B25,2013-11-20 22:56:00,
2013-11-20 18:01:00,29.6,18.2,30.60,NE,38,0.0,2.0,62,0.00,,,0.00,WeatherCatV1.15B25,2013-11-20 23:01:00,
2013-11-20 18:07:00,29.5,18.1,30.61,NE,36,3.0,3.0,62,0.00,,,0.00,WeatherCatV1.15B25,2013-11-20 23:07:00,
2013-11-20 18:12:00,29.5,18.1,30.61,NE,40,0.0,2.0,62,0.00,,,0.00,WeatherCatV1.15B25,2013-11-20 23:12:00,
2013-11-20 18:17:00,29.4,18.0,30.61,NE,41,2.0,4.0,62,0.00,,,0.00,WeatherCatV1.15B25,2013-11-20 23:17:00,
2013-11-20 18:22:00,29.3,18.3,30.61,NE,44,3.0,3.0,63,0.00,,,0.00,WeatherCatV1.15B25,2013-11-20 23:22:00,
2013-11-20 18:27:00,29.2,18.2,30.61,NE,41,2.0,4.0,63,0.00,,,0.00,WeatherCatV1.15B25,2013-11-20 23:27:00,
2013-11-20 18:32:00,29.1,18.1,30.61,NE,37,2.0,5.0,63,0.00,,,0.00,WeatherCatV1.15B25,2013-11-20 23:32:00,
2013-11-20 18:37:00,29.2,18.2,30.61,NE,34,1.0,1.0,63,0.00,,,0.00,WeatherCatV1.15B25,2013-11-20 23:37:00,
2013-11-20 18:42:00,29.1,18.1,30.61,NE,42,3.0,3.0,63,0.00,,,0.00,WeatherCatV1.15B25,2013-11-20 23:42:00,
2013-11-20 18:47:00,29.0,18.4,30.61,NE,38,4.0,4.0,64,0.00,,,0.00,WeatherCatV1.15B25,2013-11-20 23:47:00,
2013-11-20 18:52:00,28.9,18.3,30.61,NE,43,1.0,2.0,64,0.00,,,0.00,WeatherCatV1.15B25,2013-11-20 23:52:00,
2013-11-20 18:57:00,28.9,18.3,30.61,NE,43,1.0,2.0,64,0.00,,,0.00,WeatherCatV1.15B25,2013-11-20 23:57:00,
2013-11-20 19:02:00,28.9,18.3,30.61,NE,43,1.0,3.0,64,0.00,,,0.00,WeatherCatV1.15B25,2013-11-21 00:02:00,
2013-11-20 19:07:00,28.8,18.2,30.61,NE,35,2.0,4.0,64,0.00,,,0.00,WeatherCatV1.15B25,2013-11-21 00:07:00,
2013-11-20 19:12:00,28.9,18.3,30.61,NE,43,2.0,2.0,64,0.00,,,0.00,WeatherCatV1.15B25,2013-11-21 00:12:00,
2013-11-20 19:17:00,28.8,18.2,30.61,East,87,0.0,2.0,64,0.00,,,0.00,WeatherCatV1.15B25,2013-11-21 00:17:00,
2013-11-20 19:22:00,28.8,18.2,30.61,NE,38,1.0,3.0,64,0.00,,,0.00,WeatherCatV1.15B25,2013-11-21 00:22:00,
2013-11-20 19:27:00,28.7,18.1,30.62,NE,42,2.0,2.0,64,0.00,,,0.00,WeatherCatV1.15B25,2013-11-21 00:27:00,
2013-11-20 19:32:00,28.8,18.2,30.61,NE,37,3.0,3.0,64,0.00,,,0.00,WeatherCatV1.15B25,2013-11-21 00:32:00,
2013-11-20 19:37:00,28.8,18.2,30.61,NE,41,0.0,2.0,64,0.00,,,0.00,WeatherCatV1.15B25,2013-11-21 00:37:00,
2013-11-20 19:42:00,28.8,18.5,30.61,East,92,0.0,3.0,65,0.00,,,0.00,WeatherCatV1.15B25,2013-11-21 00:42:00,
2013-11-20 19:47:00,28.5,18.3,30.61,ENE,59,2.0,3.0,65,0.00,,,0.00,WeatherCatV1.15B25,2013-11-21 00:47:00,
2013-11-20 19:52:00,28.5,18.3,30.61,ENE,61,2.0,3.0,65,0.00,,,0.00,WeatherCatV1.15B25,2013-11-21 00:52:00,
2013-11-20 19:57:00,28.4,18.5,30.61,NE,44,1.0,3.0,66,0.00,,,0.00,WeatherCatV1.15B25,2013-11-21 00:57:00,
2013-11-20 20:02:00,28.4,18.5,30.62,ENE,72,2.0,3.0,66,0.00,,,0.00,WeatherCatV1.15B25,2013-11-21 01:02:00,
2013-11-20 20:07:00,28.5,18.6,30.62,ENE,72,1.0,2.0,66,0.00,,,0.00,WeatherCatV1.15B25,2013-11-21 01:07:00,
2013-11-20 20:12:00,28.4,18.5,30.62,ENE,72,2.0,2.0,66,0.00,,,0.00,WeatherCatV1.15B25,2013-11-21 01:12:00,
2013-11-20 20:17:00,28.1,18.2,30.62,ENE,72,0.0,2.0,66,0.00,,,0.00,WeatherCatV1.15B25,2013-11-21 01:17:00,
2013-11-20 20:22:00,28.0,18.1,30.62,ENE,72,0.0,1.0,66,0.00,,,0.00,WeatherCatV1.15B25,2013-11-21 01:22:00,
2013-11-20 20:27:00,28.0,18.1,30.62,ENE,72,0.0,0.0,66,0.00,,,0.00,WeatherCatV1.15B25,2013-11-21 01:27:00,
2013-11-20 20:32:00,28.1,18.2,30.62,ENE,72,2.0,2.0,66,0.00,,,0.00,WeatherCatV1.15B25,2013-11-21 01:32:00,
2013-11-20 20:37:00,28.1,18.2,30.62,ENE,72,2.0,2.0,66,0.00,,,0.00,WeatherCatV1.15B25,2013-11-21 01:37:00,
2013-11-20 20:42:00,28.2,18.0,30.62,ENE,74,2.0,2.0,65,0.00,,,0.00,WeatherCatV1.15B25,2013-11-21 01:42:00,
2013-11-20 20:47:00,28.3,18.4,30.62,ENE,74,1.0,3.0,66,0.00,,,0.00,WeatherCatV1.15B25,2013-11-21 01:47:00,
2013-11-20 20:52:00,28.2,18.3,30.62,ENE,63,1.0,2.0,66,0.00,,,0.00,WeatherCatV1.15B25,2013-11-21 01:52:00,
2013-11-20 20:57:00,28.1,18.2,30.62,ENE,63,2.0,2.0,66,0.00,,,0.00,WeatherCatV1.15B25,2013-11-21 01:57:00,
2013-11-20 21:02:00,28.3,18.4,30.62,ENE,63,1.0,2.0,66,0.00,,,0.00,WeatherCatV1.15B25,2013-11-21 02:02:00,
2013-11-20 21:07:00,28.3,18.4,30.62,East,82,2.0,3.0,66,0.00,,,0.00,WeatherCatV1.15B25,2013-11-21 02:07:00,
2013-11-20 21:12:00,28.5,18.3,30.62,East,82,2.0,3.0,65,0.00,,,0.00,WeatherCatV1.15B25,2013-11-21 02:12:00,
2013-11-20 21:17:00,28.7,18.4,30.62,East,82,2.0,3.0,65,0.00,,,0.00,WeatherCatV1.15B25,2013-11-21 02:17:00,
2013-11-20 21:22:00,29.0,18.4,30.63,East,82,3.0,3.0,64,0.00,,,0.00,WeatherCatV1.15B25,2013-11-21 02:22:00,
2013-11-20 21:27:00,29.3,18.7,30.62,East,82,1.0,3.0,64,0.00,,,0.00,WeatherCatV1.15B25,2013-11-21 02:27:00,
2013-11-20 21:32:00,29.3,18.7,30.62,East,82,2.0,3.0,64,0.00,,,0.00,WeatherCatV1.15B25,2013-11-21 02:32:00,
2013-11-20 21:37:00,29.2,18.2,30.62,East,82,2.0,2.0,63,0.00,,,0.00,WeatherCatV1.15B25,2013-11-21 02:37:00,
2013-11-20 21:42:00,29.3,18.3,30.62,East,82,2.0,3.0,63,0.00,,,0.00,WeatherCatV1.15B25,2013-11-21 02:42:00,
2013-11-20 21:47:00,29.5,18.5,30.62,East,82,2.0,2.0,63,0.00,,,0.00,WeatherCatV1.15B25,2013-11-21 02:47:00,
2013-11-20 21:52:00,29.7,18.3,30.63,East,82,2.0,3.0,62,0.00,,,0.00,WeatherCatV1.15B25,2013-11-21 02:52:00,
2013-11-20 21:57:00,29.9,18.5,30.63,East,82,2.0,2.0,62,0.00,,,0.00,WeatherCatV1.15B25,2013-11-21 02:57:00,
2013-11-20 22:02:00,30.0,18.2,30.62,East,82,0.0,2.0,61,0.00,,,0.00,WeatherCatV1.15B25,2013-11-21 03:02:00,
2013-11-20 22:07:00,30.0,18.2,30.62,East,82,2.0,2.0,61,0.00,,,0.00,WeatherCatV1.15B25,2013-11-21 03:07:00,
2013-11-20 22:12:00,29.9,18.1,30.62,East,82,1.0,2.0,61,0.00,,,0.00,WeatherCatV1.15B25,2013-11-21 03:12:00,
2013-11-20 22:17:00,29.6,18.2,30.62,East,82,1.0,2.0,62,0.00,,,0.00,WeatherCatV1.15B25,2013-11-21 03:17:00,
2013-11-20 22:22:00,29.5,18.1,30.63,East,82,1.0,2.0,62,0.00,,,0.00,WeatherCatV1.15B25,2013-11-21 03:22:00,
2013-11-20 22:27:00,29.5,18.1,30.63,East,82,2.0,3.0,62,0.00,,,0.00,WeatherCatV1.15B25,2013-11-21 03:27:00,
2013-11-20 22:32:00,29.4,18.4,30.63,East,82,1.0,2.0,63,0.00,,,0.00,WeatherCatV1.15B25,2013-11-21 03:32:00,
2013-11-20 22:37:00,29.3,18.3,30.63,East,82,1.0,3.0,63,0.00,,,0.00,WeatherCatV1.15B25,2013-11-21 03:37:00,
2013-11-20 22:42:00,29.1,18.5,30.63,East,82,1.0,2.0,64,0.00,,,0.00,WeatherCatV1.15B25,2013-11-21 03:42:00,
2013-11-20 22:47:00,28.9,18.3,30.63,ENE,77,2.0,2.0,64,0.00,,,0.00,WeatherCatV1.15B25,2013-11-21 03:47:00,
2013-11-20 22:52:00,28.8,18.5,30.63,ENE,76,2.0,2.0,65,0.00,,,0.00,WeatherCatV1.15B25,2013-11-21 03:52:00,
2013-11-20 22:57:00,29.0,18.7,30.63,East,82,3.0,3.0,65,0.00,,,0.00,WeatherCatV1.15B25,2013-11-21 03:57:00,
2013-11-20 23:02:00,29.0,18.7,30.63,East,82,1.0,2.0,65,0.00,,,0.00,WeatherCatV1.15B25,2013-11-21 04:02:00,
2013-11-20 23:07:00,29.0,18.7,30.64,East,82,1.0,2.0,65,0.00,,,0.00,WeatherCatV1.15B25,2013-11-21 04:07:00,
2013-11-20 23:12:00,29.0,18.7,30.63,ENE,76,0.0,2.0,65,0.00,,,0.00,WeatherCatV1.15B25,2013-11-21 04:12:00,
2013-11-20 23:17:00,28.9,18.6,30.63,ENE,67,0.0,2.0,65,0.00,,,0.00,WeatherCatV1.15B25,2013-11-21 04:17:00,
2013-11-20 23:22:00,28.8,18.5,30.63,ENE,67,2.0,2.0,65,0.00,,,0.00,WeatherCatV1.15B25,2013-11-21 04:22:00,
2013-11-20 23:27:00,28.6,18.4,30.64,ENE,67,0.0,1.0,65,0.00,,,0.00,WeatherCatV1.15B25,2013-11-21 04:27:00,
2013-11-20 23:32:00,28.4,18.2,30.64,ENE,67,0.0,0.0,65,0.00,,,0.00,WeatherCatV1.15B25,2013-11-21 04:32:00,
2013-11-20 23:37:00,28.4,18.2,30.64,ENE,67,0.0,0.0,65,0.00,,,0.00,WeatherCatV1.15B25,2013-11-21 04:37:00,
2013-11-20 23:42:00,28.4,18.2,30.64,ENE,67,0.0,2.0,65,0.00,,,0.00,WeatherCatV1.15B25,2013-11-21 04:42:00,
2013-11-20 23:47:00,28.3,18.4,30.63,ENE,67,0.0,0.0,66,0.00,,,0.00,WeatherCatV1.15B25,2013-11-21 04:47:00,
2013-11-20 23:52:00,28.2,18.3,30.63,ENE,67,0.0,0.0,66,0.00,,,0.00,WeatherCatV1.15B25,2013-11-21 04:52:00,
2013-11-20 23:57:00,28.2,18.3,30.63,ENE,67,0.0,0.0,66,0.00,,,0.00,WeatherCatV1.15B25,2013-11-21 04:57:00,